Курово

Россия / Московская область     55°48′01″N   35°59′44″E
темп.,
°C
ветер,
м/с
пор.,
м/с
влажн.,
%
обл.,
%
осадки,
мм/ч
давл.,
гПа
погр.,
м
15 мая, сб
сб1500:00+12в41197100 1.3 1010335
03:00+12вюв399932 1.3 1008200
06:00+13юв2798100 0.0 1007196
09:00+17ю368213 0.0 1008555
12:00+21ю465895 0.1 10081528
15:00+21ю68514 0.5 10071993
18:00+17ююз497852 1.4 1007612
21:00+13ю4109520 2.8 1008334
16 мая, вс
вс1600:00+12ююз4119731 0.3 1009444
03:00+11ююз3119829 0.3 1010356
06:00+11ю3109733 0.0 1011360
09:00+16ююз58787 0.0 1011710
12:00+19ююз576559 0.6 10111495
15:00+18юз478194 3.4 10121059
18:00+18зюз26840 1.4 1012775
21:00+13юз11924 1.6 101411
17 мая, пн
пн1700:00+12ююв1193100 0.0 101411
03:00+11юв229599 0.0 101519
06:00+12вюв249449 0.0 1014100
09:00+18вюв367589 0.0 1014453
12:00+23вюв5756100 0.0 10121303
15:00+24вюв5959100 0.0 10101465
18:00+23вюв5106787 0.0 1008983
21:00+19вюв5158212 0.0 1008680
18 мая, вт
вт1800:00+18вюв51581100 0.0 1007590
03:00+16вюв41386100 0.0 1006421
06:00+16юв51384100 0.0 1004441
09:00+20юв61372100 0.0 1004750
12:00+23ю7136285 0.0 10041649
15:00+20ю696482 0.1 10061352
18:00+19ююв467481 0.2 1006752
21:00+15ююв2592100 0.8 1007135
19 мая, ср
ср1900:00+14ююв249697 1.9 100690
03:00+12ююв2297100 1.9 100630
06:00+13вюв1295100 0.0 100590
09:00+17вюв368687 1.1 1003370
12:00+19юв4678100 2.4 1001766
15:00+18ююв4685100 5.8 999762
18:00+10з71496100 6.1 1000613
21:00+10зюз81795100 10.6 10021225